Location: Bats
(43.6587°N, 0.4584°W)
Time: 09:54:55
(UTC+00:00)

Cosmos 1741 Rocket - Pass Details

Date: 12 January 2026
Orbit: 758 x 777 km, 74.0° (Epoch: 10 February)

Event Time Altitude Azimuth Distance (km) Brightness Sun altitude
Rises 18:42:23 0° 340° (NNW) 3,238 7.4 -20.3°
Reaches altitude 10° 18:44:46 10° 342° (NNW) 2,305 6.6 -20.8°
Maximum altitude 18:50:00 79° 69° (ENE) 780 3.8 -21.7°
Drops below altitude 10° 18:55:11 10° 156° (SSE) 2,281 6.3 -22.6°
Sets 18:57:33 0° 158° (SSE) 3,201 7.1 -23.0°
